Regional Weather Roundup
Issued by NWS Upton, NY

Current Version | Previous Version | Graphics & Text | Print | Product List | Glossary On
Versions: 1 2 3 4 5 6 7 8 9 10 11 12 13 14 15 16 17 18 19 20 21 22 23 24 25 26 27 28 29 30 31 32 33 34 35 36 37 38 39 40 41 42 43 44 45
000
ASUS41 KOKX 040804
RWROKX

REGIONAL WEATHER ROUNDUP
NATIONAL WEATHER SERVICE NEW YORK NY
400 AM EDT TUE AUG 04 2015

NOTE: "FAIR" INDICATES FEW OR NO CLOUDS BELOW 12,000 FEET WITH NO
SIGNIFICANT WEATHER AND/OR OBSTRUCTIONS TO VISIBILITY.

NYZ071-072-176-178-NJZ106-104-040900-
NEW YORK CITY METRO AREA


CITY           SKY/WX    TMP DP  RH WIND       PRES   REMARKS
CENTRAL PARK   LGT RAIN  76  65  68 MISG      29.85R
LAGUARDIA APRT TSTM      79  65  62 W14G22    29.81S
KENNEDY INTL   CLOUDY    77  72  84 SW8       29.83S
NEWARK/LIBERTY TSTM      70  64  83 W28G51    29.87R
BRNX BOT. GARD   N/A     75  66  73 E3        29.84S
TETERBORO      TSTM      73  64  73 W22G29    29.84R VSB 1
$$

NYZ177-179-078>081-040900-
LONG ISLAND NEW YORK

CITY           SKY/WX    TMP DP  RH WIND       PRES   REMARKS
FARMINGDALE    MOCLDY    77  73  87 W9        29.84R
ISLIP          CLOUDY    77  74  90 SW15      29.82R
SHIRLEY        CLOUDY    78  75  90 SW7G21    29.84S
WESTHAMPTON    CLOUDY    77  75  93 SW10      29.85S
MONTAUK POINT    N/A     77  74  90 SW8       29.85S
$$

NYZ052-065-067-040900-
HUDSON VALLEY

CITY           SKY/WX    TMP DP  RH WIND       PRES   REMARKS
WHITE PLAINS   LGT RAIN  74  67  78 W6        29.84R
NEWBURGH       NOT AVBL
MONTGOMERY     LGT RAIN  67  63  87 SW3       29.84R
POUGHKEEPSIE   MOCLDY    71  63  75 CALM      29.83R
ALBANY         CLOUDY    68  66  93 S5        29.83R
$$

NJZ001-105-106-008-010-013-015-019>022-104-040900-
NEW JERSEY

CITY           SKY/WX    TMP DP  RH WIND       PRES   REMARKS
NEWARK/LIBERTY TSTM      70  64  83 W28G51    29.87R
TETERBORO      TSTM      73  64  73 W22G29    29.84R VSB 1
CALDWELL       LGT RAIN  72  64  76 W14G25    29.87R
MORRISTOWN     TSTM      73  66  78 W15G21    29.87R
SOMERVILLE     TSTM      68  64  87 N5        29.84R
SUSSEX         LGT RAIN  67  64  90 SW6       29.86R FOG
ANDOVER          N/A     67  65  93 CALM      29.87R
TRENTON        MOCLDY    69  64  84 CALM      29.87R
MILLVILLE      CLEAR     78  74  87 SW6       29.85R
ATLANTIC CITY  CLEAR     76  73  91 S9        29.85S
WRIGHTSTOWN    PTCLDY    73  73  98 CALM      29.83R
TOMS RIVER       N/A     73  72  94 SW6       29.86R
BELMAR         PTCLDY    75  68  78 SW6       29.85S
$$

PAZ047>061-062-071-040900-
EASTERN PENNSYLVANIA

CITY           SKY/WX    TMP DP  RH WIND       PRES   REMARKS
PHILADELPHIA   MOCLDY    77  63  61 N13       29.86R
ALLENTOWN      MOCLDY    66  63  90 CALM      29.85R
SCRANTON       CLOUDY    69  66  90 S3        29.84S
$$

CTZ002-004>006-009-010-012-RIZ004-006-007-MAZ004-011-015-040900-
SOUTHERN NEW ENGLAND
 IN CT

CITY           SKY/WX    TMP DP  RH WIND       PRES   REMARKS
BRADLEY INTL   CLOUDY    73  70  90 SE3       29.80F
HARTFORD       CLOUDY    74  72  93 S5        29.81S
DANBURY        CLOUDY    68  65  90 CALM      29.85R
WTRBRY/OXFORD  CLOUDY    73  64  73 S5        29.86S
BRIDGEPORT     CLOUDY    77  72  84 SW7       29.82S
MERIDEN        CLOUDY    74  70  87 CALM      29.81F
NEW HAVEN      MOCLDY    76  72  87 SW3       29.82S
CHESTER        FAIR      73  73 100 CALM      29.84F
GROTON         PTCLDY    75  73  93 SW10      29.82F
WILLIMANTIC    MOCLDY    73  70  90 CALM      29.84R

 IN RI

CITY           SKY/WX    TMP DP  RH WIND       PRES   REMARKS
PROVIDENCE     CLEAR     75  72  90 SW9       29.83S
BLOCK ISLAND     N/A     73  73 100 SW14      29.85S
WESTERLY       PTCLDY    75  72  90 SW7       29.84F

 IN MA

CITY           SKY/WX    TMP DP  RH WIND       PRES   REMARKS
BOSTON         PTCLDY    74  70  87 SW8       29.82R
WORCESTER      PTCLDY    69  67  93 SW8       29.86S FOG
WESTFIELD      CLOUDY    68  66  93 CALM      29.81S
PROVINCETOWN   PTCLDY    72  66  83 SW8       29.83S
NANTUCKET      CLOUDY    72  70  93 SW9       29.86S FOG
$$

ANZ330-335-338-340-345-350-353-355-040900-
COASTAL MARINE OBSERVATIONS


STATION/POSITION TIME  SKY/WX   TEMP    WIND        PRES    VSBY  WAVE
                                AIR SEA DIR/SP/G                  HT/PER
                 (UTC)          (F)     (DEG/KT/KT) (MB)    (MI)  (FT/S)
NY HARB ENTRANCE 0650            76 75  210/ 16/ 19 1009.3          5/ 7
4S FIRE IS       NOT AVBL
20S FIRE ISLAND  0650            77 74  210/ 16/ 17 1009.9          6/ 7
GREAT SOUTH BAY  0700            77 80  240/ 16/ 21   N/A
23SW MTP         0750            77 75  220/ 16/ 17 1010.1          5/ 7
HUDSON CANYON    NOT AVBL
KINGS POINT      0700            76 71  210/  6/  8 1009.0
EXECUTION ROCKS  0700            76     200/  6/  8   N/A
CENTRAL LI SOUND NOT AVBL
EASTERN LI SOUND 0700            73 69  220/ 12/ 14   N/A
ROBBINS REEF     0700            78     250/ 14/ 17 1008.7
$$


>>>>>>>>>>>>>>>>>>>>>>>>>>>> KEY <<<<<<<<<<<<<<<<<<<<<<<<<<<
>                                                          <
>     SKY/WX - SKY CONDITION/PRESENT WEATHER               <
>     TMP    - TEMPERATURE IN FAHRENHEIT                   <
>     DP     - DEWPOINT IN FAHRENHEIT                      <
>     RH     - RELATIVE HUMIDITY IN PERCENT                <
>     WIND   - DIRECTION AND SPEED IN MPH                  <
>     PRES   - MEAN SEA LEVEL PRESSURE IN INCHES OF HG     <
>     WCI    - WIND CHILL INDEX                            <
>     VSB    - VISIBILITY IN MILES                         <
>     HX     - HEAT INDEX                                  <
>     TC     - TEMPERATURE IN CELSIUS                      <
>     VRB    - VARIABLE WIND DIRECTION                     <
>                                                          <
>>>>>>>>>>>>>>>>>>>>>>>>>>>> KEY <<<<<<<<<<<<<<<<<<<<<<<<<<<




USA.gov is the U.S. government's official web portal to all federal, state and local government web resources and services.